Location: Kergonan
(48.2337°N, 4.5518°W)
Time: 12:12:52
(UTC+00:00)

STARLINK-80 - Pass Details

Date: 18 January 2020
Orbit: 491 x 495 km, 53.0° (Epoch: 16 February)

Event Time Altitude Azimuth Distance (km) Brightness Sun altitude
Exits shadow 06:36:25 19° 251° (WSW) 1,207 4.9 -14.0°
Maximum altitude 06:39:00 77° 335° (NNW) 510 3.3 -13.5°
Drops below altitude 10° 06:42:49 10° 63° (ENE) 1,687 6.8 -12.9°
Sets 06:45:00 0° 65° (ENE) 2,570 7.8 -12.6°
